Theta_e
311 315 317 322 324 321 322 322 324 326 326 325 324 326 328 329 330 329 320 317 318 320 319 321 314 314 314 314 314 314 317 320 328 332 334 335 336 338 338 336 332 331 332 337 338 338 338 334 333
318 317 320 323 320 322 322 322 323 324 327 326 324 326 327 327 325 322 321 316 318 316 316 317 312 311 311 311 311 314 317 318 319 321 327 331 333 335 335 336 336 333 334 337 338 338 337 336 336
318 318 321 321 322 321 322 323 322 325 326 327 327 326 328 328 323 322 318 317 316 315 314 314 310 309 309 308 309 312 314 316 319 320 319 322 326 331 333 334 335 335 333 334 337 337 336 335 334
318 317 318 318 321 322 321 322 323 323 322 326 325 326 323 322 321 320 316 316 316 314 313 312 309 308 307 306 305 306 311 314 316 317 318 320 321 324 327 332 334 334 334 333 334 336 335 333 330
317 319 319 321 322 321 321 320 322 323 323 322 322 324 324 319 318 316 315 315 315 314 312 311 307 305 302 300 300 301 302 308 313 313 314 316 317 319 320 327 330 332 334 334 332 333 331 331 327
318 319 319 321 322 321 320 320 320 322 323 321 321 323 322 318 316 315 315 315 313 313 311 309 306 303 301 300 300 300 301 306 309 310 312 313 314 315 317 319 323 328 331 334 333 330 330 330 327
321 320 321 322 322 321 320 320 320 320 321 321 319 321 321 317 316 315 314 314 313 311 310 308 307 306 305 305 303 300 300 302 303 307 309 310 311 312 312 312 315 321 328 332 333 329 329 329 328
319 320 321 321 321 322 320 319 318 319 320 317 318 321 321 319 315 314 314 313 312 311 309 307 307 307 307 307 305 304 303 304 304 304 306 308 307 307 307 308 308 310 319 328 331 330 328 328 327
317 319 322 322 321 320 318 318 318 317 318 317 318 318 317 316 314 313 313 313 312 311 308 307 307 306 306 305 304 305 307 307 308 309 310 309 310 311 311 311 311 313 319 323 327 329 328 328 326
318 320 321 319 318 317 317 317 318 318 318 318 318 317 314 314 313 314 314 314 313 312 309 308 307 306 305 305 306 307 307 308 309 310 311 310 311 311 310 310 310 310 312 316 324 328 328 328 325
317 319 318 316 316 317 317 317 317 317 318 318 319 319 316 314 314 314 314 314 314 311 309 308 307 305 304 306 306 307 307 308 309 310 311 311 311 311 311 311 312 313 313 317 323 326 328 327 323
315 315 315 315 316 317 317 317 317 317 318 317 317 317 317 315 315 314 314 314 312 310 309 308 306 304 305 306 306 306 307 308 309 310 311 310 310 310 310 310 311 312 315 320 325 327 327 324 322
315 316 315 316 316 316 316 316 317 317 317 317 316 315 315 315 314 314 313 313 311 310 309 307 305 304 305 306 306 308 308 309 310 310 310 310 309 309 310 308 309 311 314 319 324 326 324 322 320
317 317 317 317 317 316 316 317 315 317 315 315 316 315 314 314 314 314 313 312 310 310 308 306 304 304 305 306 308 308 309 309 309 309 309 309 308 308 309 309 308 310 314 318 324 324 321 319 317
317 317 319 318 317 316 315 318 317 317 316 315 315 315 314 315 314 314 313 311 311 309 306 304 303 304 306 308 308 308 309 309 309 309 309 310 309 308 308 308 307 309 314 318 322 321 320 317 315
317 317 322 318 316 317 315 324 322 317 315 316 316 315 315 314 314 313 312 311 309 307 305 303 304 306 308 308 308 309 309 309 309 309 309 308 308 307 307 308 307 309 315 318 321 320 319 317 314
319 323 325 323 316 317 317 323 322 316 315 316 317 316 315 315 314 313 311 310 308 305 303 304 305 308 308 308 309 309 310 309 309 309 308 308 308 307 307 308 307 310 313 318 320 319 317 316 315
331 325 325 323 319 317 319 320 320 320 319 318 318 317 316 315 314 312 311 309 306 304 303 304 307 308 308 309 308 309 309 309 310 310 309 308 307 307 307 307 307 310 313 318 319 317 316 316 316
320 321 323 323 317 314 319 320 320 320 320 320 319 317 317 315 314 313 310 307 305 303 304 306 308 308 308 308 307 306 307 308 310 311 309 309 307 307 308 307 308 309 313 318 317 317 316 313 314
318 320 323 322 315 313 319 319 319 320 317 316 317 316 315 316 314 312 308 306 304 304 305 308 308 308 308 307 306 305 306 308 310 311 310 308 308 308 307 308 308 313 316 317 317 316 315 314 314
318 321 326 321 317 317 315 325 328 318 314 314 314 314 313 313 314 311 308 306 304 304 307 308 308 307 307 306 306 307 309 311 312 312 310 309 308 308 308 308 309 313 317 317 317 315 314 315 316
320 318 317 316 318 325 316 337 328 324 319 315 313 314 314 312 313 310 308 306 304 305 308 308 308 307 306 306 307 307 309 311 311 313 310 310 309 310 309 311 314 317 318 317 316 315 314 315 315
319 313 315 315 317 318 321 326 334 324 320 316 315 314 313 312 312 310 308 305 304 306 308 308 308 308 306 306 307 306 309 310 312 313 313 311 311 311 309 311 315 319 318 317 316 315 315 315 315
313 314 314 315 317 328 326 324 337 335 320 315 315 313 312 311 311 309 306 303 304 306 308 308 308 308 307 306 307 306 308 309 311 313 314 316 315 315 317 318 317 319 318 317 315 315 315 315 316
313 316 332 335 327 328 314 317 326 322 313 312 315 313 312 311 309 307 304 303 304 306 308 308 308 308 307 306 306 306 307 309 310 312 314 314 319 318 319 319 319 319 318 317 316 316 315 315 315
314 316 322 331 328 322 313 319 324 315 314 310 313 313 311 310 309 307 305 303 304 305 307 308 308 308 307 306 306 306 307 307 310 311 314 316 316 317 318 319 320 319 319 318 317 316 315 315 314
314 314 313 316 312 318 317 318 318 311 312 311 311 313 312 310 309 307 305 302 303 304 307 308 307 306 306 306 306 306 307 308 308 311 314 315 316 316 318 318 319 319 319 318 316 316 315 315 314
311 311 314 315 329 327 321 320 322 315 313 312 312 312 313 311 309 307 305 302 302 304 306 307 307 306 306 305 305 306 307 308 309 310 313 315 316 317 317 317 317 317 317 318 318 317 315 314 313
310 311 312 315 317 323 324 322 316 315 312 313 313 313 312 313 310 308 305 302 301 303 305 307 307 307 305 304 305 306 307 306 308 309 310 312 316 316 317 317 318 318 318 318 317 317 315 315 314
311 311 312 316 319 315 314 320 312 311 309 309 311 313 313 312 311 308 306 302 301 303 304 306 307 307 306 304 304 304 307 306 306 306 308 309 311 314 315 315 317 318 318 317 317 317 316 315 314
Wind_Speed
5 5 5 6 6 6 9 2 2 4 4 2 2 2 2 6 5 4 8 6 5 5 4 3 2 5 7 9 9 9 10 9 9 10 11 10 9 13 14 15 16 16 16 18 18 18 17 17 18
3 3 6 5 7 8 5 4 7 6 5 3 3 3 5 2 4 8 9 7 6 5 3 1 3 6 9 10 11 12 11 11 11 12 11 13 13 12 14 17 16 17 16 17 17 17 18 18 19
3 6 6 4 8 9 6 3 2 6 4 5 4 2 2 1 3 7 6 9 6 4 2 3 6 10 12 13 12 11 11 11 11 12 13 13 12 13 16 14 18 18 18 19 19 18 19 19 19
5 6 5 7 12 8 6 2 1 7 4 6 4 5 3 1 6 6 9 8 6 3 1 5 9 10 10 10 10 11 11 11 11 11 13 13 13 13 13 16 14 20 21 21 22 22 22 23 20
7 4 8 8 11 9 5 4 4 8 5 7 7 4 2 5 6 9 10 8 6 4 3 3 8 6 8 10 11 12 12 12 12 13 13 14 15 15 16 17 16 19 22 23 24 25 24 25 22
6 4 7 10 10 3 6 5 7 9 9 4 5 10 4 6 11 10 9 8 6 5 4 4 7 8 10 12 12 13 13 14 14 15 15 15 15 16 17 18 19 22 21 24 26 26 25 28 25
10 7 11 12 10 9 7 0 9 9 11 11 2 6 1 8 12 11 10 8 6 6 6 5 5 7 12 14 16 16 16 18 18 18 18 18 18 18 19 20 20 22 25 22 26 29 28 30 26
5 3 8 6 7 8 3 3 3 9 9 4 2 5 8 9 13 11 9 8 7 8 8 6 6 7 9 11 15 20 21 20 19 20 21 20 21 22 20 19 20 21 22 27 25 28 29 30 29
2 6 8 10 5 1 3 5 5 2 10 4 7 8 4 8 13 11 10 10 10 11 9 7 7 8 10 13 13 18 18 19 18 16 17 17 14 14 15 16 18 21 16 18 24 23 31 32 31
5 5 8 6 4 5 2 7 7 5 10 13 13 11 5 10 13 13 13 12 13 12 9 7 7 9 11 13 14 16 16 16 16 16 14 14 13 13 15 18 19 19 23 21 22 26 31 37 36
4 6 6 3 6 5 7 9 11 10 13 15 16 13 14 13 14 14 14 14 11 10 8 7 7 9 11 13 15 16 17 17 15 13 12 12 13 12 12 13 12 13 12 14 16 23 27 26 39
5 10 10 3 2 4 6 8 10 14 20 8 7 6 9 15 14 15 15 13 11 10 7 6 7 10 12 14 16 18 18 17 14 12 12 12 11 11 11 12 12 10 10 10 13 13 25 26 29
9 11 5 8 7 7 11 15 15 19 18 14 10 8 11 13 14 15 14 11 10 9 7 6 7 10 13 15 17 19 18 14 13 14 13 11 11 11 10 11 12 10 9 10 10 25 30 36 34
5 8 11 7 9 8 10 14 2 8 3 12 18 14 13 14 15 15 14 13 11 8 6 5 8 10 13 17 18 17 14 13 13 14 14 13 13 12 10 10 11 9 8 10 17 34 35 35 37
5 10 11 10 7 4 4 13 16 16 9 9 10 14 15 15 16 17 15 14 10 8 4 5 8 10 14 16 15 14 13 13 15 14 13 13 13 11 10 9 10 9 7 5 29 35 32 28 28
5 4 6 7 6 2 4 11 2 6 7 11 12 12 14 16 16 17 15 12 9 6 3 5 8 12 14 13 14 14 13 14 14 13 13 14 11 10 10 8 8 9 8 4 32 34 35 36 26
7 9 10 4 6 2 8 11 5 4 8 12 12 12 13 14 15 17 15 12 9 5 1 5 9 11 12 12 13 13 13 13 12 14 15 11 10 10 9 7 8 8 11 9 33 34 32 30 31
7 10 9 9 4 7 11 23 22 20 21 22 18 16 14 14 16 17 15 12 9 5 0 4 8 9 10 10 13 12 11 10 13 14 13 9 8 7 7 6 6 9 9 17 35 35 28 30 31
9 11 14 11 3 5 13 19 22 20 21 22 19 16 16 16 13 15 14 12 8 5 0 4 7 8 9 11 12 11 12 13 13 13 6 5 4 4 5 5 5 7 5 34 38 37 36 29 39
11 12 12 10 1 4 14 22 24 18 9 10 11 10 12 13 14 12 14 12 8 5 1 3 6 6 7 8 10 9 13 12 16 12 3 1 1 1 3 3 4 3 12 37 36 35 31 30 30
12 11 4 7 7 12 12 12 6 5 6 6 6 4 4 10 14 13 12 12 8 5 2 2 5 6 5 7 9 9 9 10 9 16 4 3 3 3 3 5 8 9 35 39 37 37 40 28 21
13 3 7 6 6 5 2 7 5 9 8 7 7 7 7 9 13 13 12 12 9 5 2 2 5 5 4 6 8 10 9 9 11 14 4 5 5 3 3 7 9 21 28 38 35 30 29 31 23
1 2 3 3 6 8 6 4 6 4 5 4 5 5 5 9 13 13 11 11 8 5 2 2 4 3 4 5 7 9 9 9 11 7 6 9 11 5 5 7 12 18 26 27 29 31 24 22 21
8 3 3 3 4 5 4 5 4 3 1 3 5 6 8 11 12 12 12 10 7 5 2 1 3 3 3 5 5 7 7 9 12 10 8 9 13 11 9 7 12 15 25 27 31 28 28 29 22
6 5 2 3 4 5 2 5 11 5 3 3 8 9 10 11 12 12 11 10 8 5 3 1 2 2 2 3 4 6 4 5 7 9 7 8 10 13 16 17 20 21 25 27 28 28 33 32 23
11 5 5 5 3 2 2 6 5 2 1 5 7 11 11 12 11 11 10 10 9 6 4 2 1 2 2 1 3 3 3 2 4 6 7 7 11 11 11 18 20 24 21 24 27 27 30 26 25
8 8 2 4 2 3 7 9 10 8 6 9 9 12 12 13 12 12 10 11 10 8 7 5 2 1 2 1 1 1 1 2 2 3 7 9 8 9 10 15 16 16 17 16 20 24 28 26 26
4 4 3 4 4 6 6 5 10 4 9 11 13 13 14 13 13 12 11 13 11 10 8 6 4 3 3 3 3 2 2 0 2 2 6 7 8 9 10 12 14 15 13 15 17 20 19 23 23
6 7 6 3 4 4 4 5 1 2 2 11 11 13 13 15 14 13 11 14 13 11 10 9 7 5 5 4 5 4 5 2 3 3 4 7 8 8 11 13 12 12 13 15 19 22 24 26 23
14 14 17 6 6 5 2 7 3 2 2 1 5 10 12 12 13 13 12 15 15 14 12 12 10 8 6 6 6 6 7 5 5 5 4 6 9 11 11 12 14 15 16 16 22 23 25 29 28
Wind_Direction
299 276 247 256 242 232 256 232 286 202 206 119 22 248 310 358 327 314 135 129 138 134 113 41 352 336 336 333 331 322 312 305 312 296 290 296 290 267 257 250 242 239 229 227 220 214 207 199 195
269 241 230 269 254 240 262 167 202 215 94 181 159 206 244 248 88 122 156 148 143 138 120 47 326 312 313 311 315 315 325 318 312 302 302 287 288 287 270 257 247 240 235 227 223 209 201 201 196
229 223 254 232 250 255 300 62 269 97 159 198 191 284 2 93 126 143 125 151 154 148 134 277 305 305 306 308 311 311 317 318 316 312 298 294 294 288 273 268 255 243 234 231 225 213 197 188 182
214 201 236 247 251 253 280 48 284 163 192 222 253 241 139 85 148 161 156 161 168 183 230 293 299 306 309 313 316 319 320 319 315 311 306 301 298 296 290 271 262 250 237 230 227 216 200 192 193
223 258 250 244 262 274 284 285 230 224 208 206 206 222 237 179 158 152 162 174 189 214 261 287 297 305 316 315 316 317 315 314 311 311 307 299 292 288 285 263 266 250 246 233 227 222 212 197 196
228 277 247 255 261 218 271 255 231 239 225 167 224 258 253 138 177 173 179 187 199 231 256 258 296 311 312 312 316 317 316 314 309 304 301 296 290 284 279 272 264 252 250 239 229 225 213 198 191
257 248 261 279 279 276 261 270 226 240 234 221 244 251 121 181 188 182 189 197 212 239 252 253 275 296 323 324 316 314 313 310 306 299 297 292 286 283 281 276 268 253 245 244 237 223 213 199 194
274 274 261 246 268 270 106 210 323 259 257 72 161 243 248 178 181 186 191 206 226 241 247 261 285 301 305 305 307 310 313 314 307 303 300 294 287 284 278 281 270 268 255 241 242 228 214 200 193
272 248 256 254 268 353 126 231 161 337 263 212 203 265 45 138 171 187 198 219 233 241 245 262 281 298 303 307 310 310 313 308 316 313 303 303 297 287 275 269 261 254 260 249 246 243 216 197 187
235 251 267 8 329 288 258 262 280 251 233 240 240 232 193 176 189 199 210 223 228 241 236 256 281 300 309 313 309 310 311 308 304 302 295 293 293 291 278 268 264 261 251 255 242 231 217 188 176
196 246 359 294 301 291 284 270 248 260 259 252 249 233 198 209 209 216 224 232 243 236 238 260 290 308 313 311 311 312 309 308 303 297 291 289 291 291 290 285 279 276 258 258 249 240 209 184 164
251 243 273 307 319 279 273 297 257 248 257 299 313 287 201 211 217 220 227 232 233 236 251 273 299 308 311 312 311 308 307 306 298 291 290 290 287 288 290 290 279 273 256 242 244 226 186 149 139
242 263 282 270 273 276 277 262 272 270 265 262 234 248 236 216 222 223 227 232 234 240 255 280 300 311 314 313 310 309 308 301 294 291 288 285 283 288 288 288 285 270 254 246 244 165 150 146 149
0 295 278 275 273 263 267 276 301 260 322 253 238 231 233 224 222 218 219 224 223 234 250 281 304 315 316 313 313 311 307 299 295 289 288 281 276 275 272 284 288 261 244 249 160 144 136 132 145
298 294 281 242 249 258 297 266 232 252 238 255 232 229 231 226 221 219 216 221 221 223 244 294 316 321 319 318 317 314 305 302 293 290 292 278 272 262 265 273 280 254 235 239 145 139 137 141 140
254 248 271 118 180 162 238 276 296 174 222 242 235 225 221 219 216 214 213 208 201 207 243 310 321 321 323 323 321 312 310 306 302 293 280 289 279 254 255 260 261 242 237 222 141 136 132 127 135
209 269 230 244 209 223 221 286 305 200 234 247 243 224 224 216 210 209 201 201 194 197 249 319 325 326 329 329 325 318 314 312 300 295 285 289 275 259 242 250 232 230 236 168 139 141 135 133 129
254 240 250 260 150 226 253 265 274 269 254 254 255 255 219 216 209 201 194 187 178 181 185 318 323 331 339 343 334 331 326 320 312 301 293 285 278 246 227 229 227 238 233 155 142 134 131 129 126
291 277 275 280 120 286 266 278 283 279 270 261 254 248 238 212 208 189 183 175 173 170 194 319 334 343 350 348 350 337 338 329 326 326 337 292 277 228 229 196 225 222 254 142 138 130 128 121 128
249 265 273 281 181 267 296 292 285 287 275 272 255 245 239 214 192 174 176 172 174 168 191 343 355 348 354 346 342 317 322 317 317 336 358 8 169 201 175 180 202 171 117 131 137 139 134 134 142
230 247 263 279 309 254 295 279 264 211 229 226 220 209 217 219 187 183 179 174 171 168 170 16 10 353 353 350 344 339 341 343 353 4 37 91 97 107 146 189 161 100 140 138 142 148 148 153 151
255 232 244 279 307 297 20 289 298 268 264 217 220 203 197 198 187 180 175 171 173 164 151 24 20 356 353 5 355 342 330 346 330 355 46 94 105 141 164 133 111 114 145 152 152 156 156 160 156
194 124 215 250 271 313 190 255 263 254 268 188 182 173 172 178 181 172 171 168 164 167 153 35 26 351 358 13 6 344 349 344 348 29 60 103 96 100 141 119 125 122 145 150 154 154 158 165 165
127 160 210 248 263 248 180 231 277 237 192 140 142 147 153 158 160 164 159 161 174 174 159 62 22 338 4 17 10 353 355 350 8 44 55 114 119 118 114 142 151 139 148 153 159 159 162 163 170
193 199 240 233 213 255 139 226 259 256 219 188 164 155 156 158 160 162 168 178 182 190 179 122 358 333 347 20 24 357 4 0 22 35 58 67 102 123 123 135 147 154 165 171 168 169 167 170 174
193 230 235 257 242 12 139 234 252 43 111 140 154 154 157 168 173 178 180 181 184 192 198 188 291 330 314 54 28 2 3 43 29 52 78 101 103 114 144 151 152 153 165 179 177 173 169 172 170
159 213 359 296 113 273 239 249 267 173 185 187 165 167 175 179 182 184 183 187 190 196 205 198 206 277 256 177 81 28 335 40 57 94 112 138 137 143 140 145 145 149 148 161 178 172 177 185 181
235 132 159 223 230 248 233 248 251 204 219 199 195 191 187 184 185 187 189 192 197 199 203 203 201 216 230 205 186 183 206 226 126 146 130 126 137 150 162 157 157 159 169 171 167 172 168 174 177
175 206 224 270 238 255 279 241 57 298 163 198 204 199 190 188 188 190 192 195 197 200 206 210 208 207 222 203 190 185 201 225 204 170 165 149 153 153 168 171 180 187 181 181 188 185 182 186 181
242 213 204 215 196 238 347 257 140 137 140 221 244 187 194 189 188 189 191 191 195 203 210 214 211 210 213 208 191 186 192 203 224 185 190 173 172 169 165 178 194 193 198 199 196 191 196 194 191